| time (UTC) | temp F | wind direction | speed MPH | gust MPH | rain 1hr in | rain 24hr in | rain mn in | humidity % | barometer mb |
| 20260507012559 | 47 | 360 | 4.0 | 11.0 | 0.00 | 0.89 | 0.03 | 95 | 1009.3 |
| 20260507012057 | 47 | 360 | 5.0 | 15.0 | 0.00 | 0.89 | 0.03 | 95 | 1009.2 |
| 20260507011557 | 47 | 360 | 7.0 | 15.0 | 0.00 | 0.89 | 0.03 | 95 | 1009.2 |
| 20260507011058 | 48 | 360 | 3.0 | 9.0 | 0.00 | 0.89 | 0.03 | 95 | 1009.2 |
| 20260507010558 | 48 | 360 | 3.0 | 10.0 | 0.00 | 0.89 | 0.03 | 95 | 1009.2 |
| 20260507010110 | 48 | 360 | 3.0 | 11.0 | 0.00 | 0.89 | 0.03 | 95 | 1009.2 |
| 20260507005557 | 48 | 360 | 3.0 | 11.0 | 0.00 | 0.98 | 0.03 | 94 | 1009.2 |
| 20260507005057 | 48 | 360 | 4.0 | 11.0 | 0.00 | 0.98 | 0.03 | 94 | 1009.1 |
| 20260507004556 | 48 | 0 | 3.0 | 11.0 | 0.00 | 0.97 | 0.03 | 94 | 1009.0 |
| 20260507004057 | 48 | 360 | 5.0 | 13.0 | 0.00 | 0.97 | 0.03 | 94 | 1009.1 |
| 20260507003557 | 48 | 360 | 4.0 | 13.0 | 0.00 | 0.97 | 0.03 | 94 | 1009.1 |
| 20260507003058 | 48 | 360 | 4.0 | 11.0 | 0.00 | 0.97 | 0.03 | 94 | 1008.9 |
| 20260507002557 | 48 | 360 | 4.0 | 11.0 | 0.00 | 0.97 | 0.03 | 94 | 1008.9 |
| 20260507002057 | 48 | 360 | 5.0 | 14.0 | 0.00 | 0.97 | 0.03 | 94 | 1008.9 |
| 20260507001603 | 48 | 360 | 7.0 | 14.0 | 0.00 | 0.97 | 0.03 | 95 | 1008.8 |
| 20260507001059 | 48 | 360 | 5.0 | 11.0 | 0.00 | 0.97 | 0.03 | 95 | 1008.8 |
| 20260507000559 | 48 | 360 | 2.0 | 9.0 | 0.00 | 0.97 | 0.03 | 95 | 1008.9 |
| 20260507000056 | 48 | 360 | 3.0 | 11.0 | 0.00 | 0.97 | 0.03 | 95 | 1008.8 |
| 20260506235557 | 48 | 360 | 3.0 | 12.0 | 0.00 | 1.04 | 0.03 | 95 | 1008.9 |
| 20260506235057 | 48 | 360 | 5.0 | 14.0 | 0.00 | 1.04 | 0.03 | 95 | 1008.8 |
| 20260506234600 | 48 | 360 | 4.0 | 14.0 | 0.00 | 1.04 | 0.03 | 94 | 1008.8 |
| 20260506234057 | 48 | 360 | 7.0 | 14.0 | 0.00 | 1.04 | 0.03 | 94 | 1008.7 |
| 20260506233557 | 48 | 360 | 4.0 | 11.0 | 0.00 | 1.04 | 0.03 | 94 | 1008.7 |
| 20260506233100 | 48 | 360 | 4.0 | 10.0 | 0.01 | 1.04 | 0.03 | 94 | 1008.7 |
| 20260506232600 | 48 | 360 | 3.0 | 14.0 | 0.01 | 1.04 | 0.03 | 94 | 1008.8 |
| 20260506232057 | 48 | 360 | 6.0 | 14.0 | 0.01 | 1.04 | 0.03 | 94 | 1008.7 |
| 20260506231609 | 48 | 360 | 4.0 | 11.0 | 0.02 | 1.04 | 0.03 | 94 | 1008.6 |
| 20260506231057 | 48 | 360 | 5.0 | 10.0 | 0.02 | 1.04 | 0.03 | 94 | 1008.7 |
| 20260506230556 | 48 | 360 | 2.0 | 14.0 | 0.02 | 1.04 | 0.03 | 94 | 1008.6 |
| 20260506230111 | 48 | 360 | 5.0 | 14.0 | 0.02 | 1.04 | 0.03 | 94 | 1008.6 |
| 20260506225556 | 48 | 360 | 5.0 | 13.0 | 0.02 | 1.03 | 0.02 | 94 | 1008.5 |
| 20260506225056 | 48 | 360 | 4.0 | 13.0 | 0.03 | 1.03 | 0.02 | 94 | 1008.5 |
| 20260506224557 | 49 | 360 | 4.0 | 12.0 | 0.03 | 1.03 | 0.02 | 94 | 1008.5 |
| 20260506224056 | 49 | 360 | 5.0 | 12.0 | 0.03 | 1.03 | 0.02 | 94 | 1008.5 |
| 20260506223556 | 49 | 360 | 3.0 | 13.0 | 0.04 | 1.03 | 0.02 | 94 | 1008.5 |
| 20260506223056 | 49 | 360 | 5.0 | 13.0 | 0.05 | 1.03 | 0.01 | 94 | 1008.4 |
| 20260506222557 | 49 | 360 | 7.0 | 13.0 | 0.06 | 1.03 | 0.01 | 94 | 1008.4 |
| 20260506222057 | 49 | 360 | 4.0 | 11.0 | 0.06 | 1.03 | 0.01 | 94 | 1008.3 |
| 20260506221617 | 49 | 360 | 3.0 | 10.0 | 0.06 | 1.02 | 0.00 | 94 | 1008.4 |
| 20260506221056 | 49 | 360 | 4.0 | 11.0 | 0.06 | 1.02 | 0.00 | 94 | 1008.3 |
| 20260506220557 | 49 | 360 | 5.0 | 11.0 | 0.06 | 1.02 | 0.00 | 94 | 1008.3 |
| 20260506220122 | 49 | 360 | 5.0 | 12.0 | 0.06 | 1.02 | 0.00 | 94 | 1008.2 |
| 20260506215556 | 49 | 360 | 5.0 | 12.0 | 0.05 | 1.01 | 1.01 | 94 | 1008.1 |
| 20260506215056 | 49 | 360 | 4.0 | 10.0 | 0.04 | 1.00 | 1.00 | 94 | 1008.2 |
| 20260506214557 | 50 | 360 | 5.0 | 10.0 | 0.04 | 1.00 | 1.00 | 94 | 1008.2 |
| 20260506214056 | 50 | 360 | 6.0 | 13.0 | 0.03 | 1.00 | 1.00 | 94 | 1008.2 |
| 20260506213557 | 50 | 360 | 4.0 | 14.0 | 0.03 | 0.99 | 0.99 | 94 | 1008.2 |
| 20260506213110 | 50 | 360 | 5.0 | 14.0 | 0.01 | 0.97 | 0.97 | 94 | 1008.2 |
| 20260506212556 | 50 | 360 | 7.0 | 12.0 | 0.00 | 0.96 | 0.96 | 94 | 1008.1 |
| 20260506212059 | 50 | 360 | 4.0 | 10.0 | 0.00 | 0.96 | 0.96 | 94 | 1008.0 |
| 20260506211600 | 50 | 360 | 2.0 | 9.0 | 0.00 | 0.96 | 0.96 | 94 | 1008.0 |
| 20260506211057 | 50 | 360 | 4.0 | 11.0 | 0.00 | 0.96 | 0.96 | 94 | 1007.9 |
| 20260506210557 | 50 | 360 | 4.0 | 11.0 | 0.00 | 0.96 | 0.96 | 94 | 1007.9 |
| 20260506210105 | 50 | 360 | 1.0 | 10.0 | 0.00 | 0.96 | 0.96 | 94 | 1007.8 |
| 20260506205559 | 50 | 360 | 4.0 | 10.0 | 0.00 | 0.96 | 0.96 | 94 | 1007.8 |
| 20260506205058 | 50 | 360 | 3.0 | 12.0 | 0.00 | 0.96 | 0.96 | 94 | 1007.8 |
| 20260506204607 | 50 | 360 | 2.0 | 12.0 | 0.00 | 0.96 | 0.96 | 94 | 1007.8 |
| 20260506204057 | 50 | 360 | 5.0 | 12.0 | 0.00 | 0.96 | 0.96 | 94 | 1007.7 |
| 20260506203557 | 50 | 360 | 5.0 | 14.0 | 0.00 | 0.96 | 0.96 | 94 | 1007.6 |
| 20260506203104 | 50 | 360 | 7.0 | 14.0 | 0.00 | 0.96 | 0.96 | 94 | 1007.6 |
| 20260506202557 | 50 | 360 | 6.0 | 14.0 | 0.00 | 0.96 | 0.96 | 94 | 1007.6 |
| 20260506202058 | 50 | 360 | 6.0 | 14.0 | 0.00 | 0.96 | 0.96 | 94 | 1007.6 |
| 20260506201557 | 50 | 360 | 4.0 | 14.0 | 0.00 | 0.96 | 0.96 | 94 | 1007.5 |
| 20260506201057 | 51 | 360 | 5.0 | 14.0 | 0.00 | 0.96 | 0.96 | 94 | 1007.5 |
| 20260506200558 | 51 | 360 | 6.0 | 12.0 | 0.00 | 0.96 | 0.96 | 94 | 1007.4 |
| 20260506200059 | 51 | 360 | 4.0 | 10.0 | 0.00 | 0.96 | 0.96 | 94 | 1007.4 |
| 20260506195557 | 51 | 360 | 3.0 | 12.0 | 0.00 | 0.96 | 0.96 | 94 | 1007.4 |
| 20260506195057 | 51 | 360 | 5.0 | 12.0 | 0.00 | 0.96 | 0.96 | 94 | 1007.4 |
| 20260506194556 | 51 | 360 | 4.0 | 10.0 | 0.00 | 0.96 | 0.96 | 94 | 1007.3 |
| 20260506194058 | 51 | 360 | 5.0 | 10.0 | 0.00 | 0.96 | 0.96 | 94 | 1007.3 |
| 20260506193558 | 51 | 360 | 4.0 | 9.0 | 0.00 | 0.96 | 0.96 | 94 | 1007.3 |
| 20260506193059 | 51 | 360 | 4.0 | 11.0 | 0.00 | 0.96 | 0.96 | 94 | 1007.3 |
| 20260506192559 | 51 | 360 | 4.0 | 11.0 | 0.00 | 0.96 | 0.96 | 94 | 1007.2 |
| 20260506192058 | 51 | 360 | 3.0 | 10.0 | 0.01 | 0.96 | 0.96 | 94 | 1007.2 |
| 20260506191617 | 51 | 360 | 5.0 | 11.0 | 0.01 | 0.96 | 0.96 | 94 | 1007.1 |
| 20260506191058 | 51 | 360 | 6.0 | 13.0 | 0.01 | 0.96 | 0.96 | 94 | 1007.0 |
| 20260506190558 | 51 | 360 | 4.0 | 14.0 | 0.01 | 0.96 | 0.96 | 94 | 1007.0 |
| 20260506190058 | 51 | 360 | 6.0 | 14.0 | 0.01 | 0.96 | 0.96 | 94 | 1007.0 |
| 20260506185557 | 51 | 360 | 6.0 | 12.0 | 0.01 | 0.96 | 0.96 | 94 | 1006.9 |
| 20260506185057 | 51 | 360 | 4.0 | 10.0 | 0.01 | 0.96 | 0.96 | 94 | 1006.8 |
| 20260506184622 | 51 | 360 | 5.0 | 11.0 | 0.01 | 0.96 | 0.96 | 94 | 1006.9 |
| 20260506184058 | 51 | 360 | 6.0 | 11.0 | 0.01 | 0.96 | 0.96 | 94 | 1006.8 |
| 20260506183601 | 52 | 360 | 5.0 | 11.0 | 0.01 | 0.96 | 0.96 | 94 | 1006.7 |
| 20260506183104 | 52 | 360 | 5.0 | 11.0 | 0.00 | 0.95 | 0.95 | 94 | 1006.5 |
| 20260506182558 | 52 | 360 | 4.0 | 10.0 | 0.00 | 0.95 | 0.95 | 94 | 1006.5 |
| 20260506182057 | 52 | 360 | 4.0 | 9.0 | 0.00 | 0.94 | 0.94 | 94 | 1006.6 |
| 20260506181559 | 52 | 360 | 5.0 | 9.0 | 0.00 | 0.94 | 0.94 | 94 | 1006.6 |
| 20260506181057 | 52 | 360 | 4.0 | 10.0 | 0.00 | 0.94 | 0.94 | 94 | 1006.6 |
| 20260506180558 | 52 | 360 | 5.0 | 10.0 | 0.00 | 0.94 | 0.94 | 94 | 1006.6 |
| 20260506180058 | 52 | 360 | 3.0 | 10.0 | 0.00 | 0.94 | 0.94 | 94 | 1006.5 |
| 20260506175557 | 52 | 360 | 3.0 | 10.0 | 0.00 | 0.94 | 0.94 | 94 | 1006.6 |
| 20260506175058 | 52 | 360 | 4.0 | 12.0 | 0.00 | 0.94 | 0.94 | 94 | 1006.5 |
| 20260506174558 | 52 | 360 | 3.0 | 12.0 | 0.00 | 0.94 | 0.94 | 94 | 1006.5 |
| 20260506174057 | 52 | 360 | 4.0 | 10.0 | 0.00 | 0.94 | 0.94 | 94 | 1006.5 |
| 20260506173558 | 52 | 360 | 3.0 | 9.0 | 0.00 | 0.94 | 0.94 | 94 | 1006.5 |
| 20260506173056 | 52 | 360 | 3.0 | 9.0 | 0.00 | 0.94 | 0.94 | 94 | 1006.4 |
| 20260506172557 | 52 | 360 | 4.0 | 9.0 | 0.00 | 0.94 | 0.94 | 94 | 1006.4 |
| 20260506172058 | 52 | 360 | 4.0 | 9.0 | 0.00 | 0.94 | 0.94 | 94 | 1006.4 |
| 20260506171607 | 52 | 360 | 4.0 | 9.0 | 0.00 | 0.94 | 0.94 | 94 | 1006.4 |
| 20260506171058 | 52 | 360 | 4.0 | 9.0 | 0.00 | 0.94 | 0.94 | 94 | 1006.4 |
| 20260506170558 | 52 | 360 | 2.0 | 8.0 | 0.00 | 0.94 | 0.94 | 94 | 1006.4 |
| 20260506170059 | 52 | 360 | 4.0 | 8.0 | 0.00 | 0.94 | 0.94 | 94 | 1006.4 |
| 20260506165557 | 52 | 360 | 4.0 | 8.0 | 0.00 | 0.94 | 0.94 | 94 | 1006.4 |
| 20260506165058 | 52 | 360 | 2.0 | 6.0 | 0.00 | 0.94 | 0.94 | 94 | 1006.4 |
| 20260506164558 | 52 | 0 | 3.0 | 8.0 | 0.00 | 0.94 | 0.94 | 94 | 1006.4 |
| 20260506164058 | 52 | 360 | 1.0 | 8.0 | 0.00 | 0.94 | 0.94 | 94 | 1006.4 |
| 20260506163557 | 52 | 360 | 2.0 | 8.0 | 0.00 | 0.94 | 0.94 | 94 | 1006.4 |
| 20260506163107 | 52 | 360 | 2.0 | 8.0 | 0.01 | 0.94 | 0.94 | 94 | 1006.3 |
| 20260506162559 | 52 | 0 | 1.0 | 8.0 | 0.01 | 0.94 | 0.94 | 94 | 1006.2 |
| 20260506162100 | 52 | 360 | 3.0 | 8.0 | 0.02 | 0.94 | 0.94 | 94 | 1006.3 |
| 20260506161557 | 52 | 360 | 1.0 | 5.0 | 0.02 | 0.94 | 0.94 | 94 | 1006.2 |
| 20260506161057 | 52 | 360 | 2.0 | 5.0 | 0.02 | 0.94 | 0.94 | 94 | 1006.2 |
| 20260506160558 | 52 | 360 | 1.0 | 6.0 | 0.02 | 0.94 | 0.94 | 94 | 1006.3 |
| 20260506160108 | 52 | 360 | 2.0 | 10.0 | 0.02 | 0.94 | 0.94 | 94 | 1006.3 |
| 20260506155557 | 52 | 360 | 3.0 | 10.0 | 0.03 | 0.94 | 0.94 | 94 | 1006.4 |
| 20260506155057 | 52 | 360 | 3.0 | 10.0 | 0.03 | 0.94 | 0.94 | 94 | 1006.2 |
| 20260506154558 | 52 | 360 | 4.0 | 11.0 | 0.04 | 0.94 | 0.94 | 94 | 1006.2 |
| 20260506154100 | 51 | 0 | 5.0 | 16.0 | 0.03 | 0.93 | 0.93 | 94 | 1006.2 |
| 20260506153558 | 51 | 360 | 5.0 | 16.0 | 0.03 | 0.93 | 0.93 | 94 | 1006.3 |
| 20260506153059 | 51 | 360 | 4.0 | 11.0 | 0.03 | 0.92 | 0.92 | 94 | 1006.2 |
| 20260506152557 | 51 | 360 | 5.0 | 11.0 | 0.03 | 0.92 | 0.92 | 94 | 1006.3 |
| 20260506152057 | 51 | 360 | 5.0 | 11.0 | 0.02 | 0.92 | 0.92 | 94 | 1006.4 |
| 20260506151558 | 51 | 360 | 4.0 | 10.0 | 0.03 | 0.92 | 0.92 | 94 | 1006.4 |
| 20260506151057 | 51 | 360 | 4.0 | 10.0 | 0.03 | 0.92 | 0.92 | 93 | 1006.4 |
| 20260506150557 | 51 | 360 | 4.0 | 10.0 | 0.03 | 0.92 | 0.92 | 93 | 1006.5 |
| 20260506150056 | 52 | 360 | 5.0 | 10.0 | 0.03 | 0.92 | 0.92 | 94 | 1006.4 |
| 20260506145557 | 52 | 360 | 4.0 | 10.0 | 0.03 | 0.91 | 0.91 | 94 | 1006.3 |
| 20260506145057 | 51 | 360 | 5.0 | 10.0 | 0.03 | 0.90 | 0.90 | 94 | 1006.3 |
| 20260506144603 | 51 | 360 | 5.0 | 11.0 | 0.03 | 0.89 | 0.89 | 94 | 1006.3 |
| 20260506144058 | 51 | 360 | 5.0 | 11.0 | 0.03 | 0.89 | 0.89 | 94 | 1006.4 |
| 20260506143558 | 51 | 360 | 5.0 | 10.0 | 0.03 | 0.89 | 0.89 | 93 | 1006.4 |
| 20260506143057 | 51 | 360 | 6.0 | 10.0 | 0.03 | 0.89 | 0.89 | 94 | 1006.3 |
| 20260506142558 | 51 | 360 | 2.0 | 9.0 | 0.03 | 0.89 | 0.89 | 94 | 1006.4 |
| 20260506142059 | 51 | 360 | 3.0 | 9.0 | 0.03 | 0.89 | 0.89 | 94 | 1006.4 |
| 20260506141557 | 51 | 360 | 4.0 | 9.0 | 0.02 | 0.88 | 0.88 | 94 | 1006.4 |
| 20260506141057 | 51 | 360 | 3.0 | 12.0 | 0.02 | 0.88 | 0.88 | 94 | 1006.4 |
| 20260506140557 | 51 | 360 | 4.0 | 12.0 | 0.01 | 0.88 | 0.88 | 93 | 1006.4 |
| 20260506140059 | 51 | 360 | 5.0 | 12.0 | 0.00 | 0.87 | 0.87 | 93 | 1006.5 |
| 20260506135557 | 51 | 360 | 4.0 | 10.0 | 0.00 | 0.87 | 0.87 | 93 | 1006.5 |
| 20260506135057 | 51 | 360 | 3.0 | 9.0 | 0.00 | 0.86 | 0.86 | 93 | 1006.5 |
| 20260506134557 | 51 | 360 | 2.0 | 8.0 | 0.00 | 0.86 | 0.86 | 93 | 1006.5 |
| 20260506134058 | 51 | 360 | 3.0 | 8.0 | 0.00 | 0.86 | 0.86 | 93 | 1006.5 |
| 20260506133558 | 51 | 360 | 2.0 | 10.0 | 0.00 | 0.86 | 0.86 | 93 | 1006.6 |
| 20260506133056 | 51 | 360 | 3.0 | 10.0 | 0.00 | 0.86 | 0.86 | 93 | 1006.5 |
| 20260506132557 | 51 | 360 | 4.0 | 9.0 | 0.00 | 0.86 | 0.86 | 93 | 1006.4 |
| 20260506132059 | 51 | 360 | 3.0 | 8.0 | 0.00 | 0.86 | 0.86 | 93 | 1006.5 |
| 20260506131607 | 51 | 360 | 3.0 | 9.0 | 0.00 | 0.86 | 0.86 | 93 | 1006.5 |
| 20260506131100 | 51 | 360 | 3.0 | 9.0 | 0.00 | 0.86 | 0.86 | 93 | 1006.5 |
| 20260506130558 | 51 | 360 | 4.0 | 9.0 | 0.00 | 0.86 | 0.86 | 93 | 1006.4 |
| 20260506130057 | 51 | 360 | 4.0 | 9.0 | 0.00 | 0.86 | 0.86 | 93 | 1006.5 |
| 20260506125557 | 51 | 360 | 3.0 | 10.0 | 0.00 | 0.86 | 0.86 | 93 | 1006.5 |
| 20260506125058 | 51 | 360 | 4.0 | 11.0 | 0.00 | 0.86 | 0.86 | 93 | 1006.4 |
| 20260506124557 | 51 | 360 | 6.0 | 11.0 | 0.00 | 0.86 | 0.86 | 93 | 1006.4 |
| 20260506124057 | 51 | 360 | 5.0 | 11.0 | 0.00 | 0.86 | 0.86 | 94 | 1006.4 |
| 20260506123557 | 51 | 360 | 3.0 | 10.0 | 0.00 | 0.86 | 0.86 | 94 | 1006.4 |
| 20260506123055 | 51 | 360 | 5.0 | 11.0 | 0.00 | 0.86 | 0.86 | 94 | 1006.4 |
| 20260506122557 | 51 | 360 | 6.0 | 11.0 | 0.00 | 0.86 | 0.86 | 94 | 1006.3 |
| 20260506122057 | 51 | 360 | 5.0 | 11.0 | 0.00 | 0.85 | 0.85 | 94 | 1006.4 |
| 20260506121558 | 51 | 360 | 4.0 | 9.0 | 0.00 | 0.85 | 0.85 | 94 | 1006.4 |
| 20260506121057 | 51 | 360 | 4.0 | 9.0 | 0.00 | 0.85 | 0.85 | 94 | 1006.4 |
| 20260506120602 | 51 | 360 | 2.0 | 8.0 | 0.00 | 0.85 | 0.85 | 94 | 1006.4 |
| 20260506115558 | 50 | 360 | 5.0 | 12.0 | 0.00 | 0.85 | 0.85 | 93 | 1006.3 |
| 20260506115058 | 50 | 360 | 3.0 | 12.0 | 0.00 | 0.85 | 0.85 | 93 | 1006.2 |
| 20260506114559 | 50 | 360 | 4.0 | 12.0 | 0.00 | 0.85 | 0.85 | 94 | 1006.2 |
| 20260506114058 | 50 | 360 | 3.0 | 10.0 | 0.00 | 0.85 | 0.85 | 94 | 1006.2 |
| 20260506113557 | 50 | 360 | 5.0 | 12.0 | 0.00 | 0.85 | 0.85 | 94 | 1006.2 |
| 20260506113057 | 50 | 360 | 4.0 | 12.0 | 0.00 | 0.85 | 0.85 | 93 | 1006.3 |
| 20260506112558 | 50 | 360 | 5.0 | 11.0 | 0.00 | 0.85 | 0.85 | 94 | 1006.3 |
| 20260506112057 | 50 | 360 | 4.0 | 9.0 | 0.00 | 0.85 | 0.85 | 93 | 1006.3 |
| 20260506111602 | 50 | 360 | 3.0 | 12.0 | 0.00 | 0.85 | 0.85 | 93 | 1006.3 |
| 20260506111100 | 50 | 360 | 5.0 | 12.0 | 0.00 | 0.85 | 0.85 | 93 | 1006.4 |
| 20260506110557 | 50 | 360 | 7.0 | 12.0 | 0.00 | 0.85 | 0.85 | 93 | 1006.4 |
| 20260506110057 | 50 | 360 | 6.0 | 12.0 | 0.00 | 0.85 | 0.85 | 93 | 1006.3 |
| 20260506105557 | 50 | 360 | 5.0 | 11.0 | 0.00 | 0.85 | 0.85 | 93 | 1006.2 |
| 20260506105100 | 50 | 360 | 5.0 | 13.0 | 0.00 | 0.85 | 0.85 | 94 | 1006.2 |
| 20260506104604 | 50 | 360 | 6.0 | 14.0 | 0.00 | 0.85 | 0.85 | 94 | 1006.3 |
| 20260506104101 | 50 | 360 | 5.0 | 14.0 | 0.00 | 0.85 | 0.85 | 94 | 1006.2 |
| 20260506103557 | 50 | 360 | 7.0 | 12.0 | 0.00 | 0.85 | 0.85 | 94 | 1006.2 |
| 20260506103055 | 49 | 360 | 4.0 | 11.0 | 0.00 | 0.85 | 0.85 | 94 | 1006.2 |
| 20260506102601 | 49 | 360 | 4.0 | 11.0 | 0.00 | 0.85 | 0.85 | 94 | 1006.3 |
| 20260506102058 | 49 | 360 | 4.0 | 9.0 | 0.00 | 0.85 | 0.85 | 94 | 1006.2 |
| 20260506101601 | 49 | 360 | 3.0 | 8.0 | 0.00 | 0.85 | 0.85 | 94 | 1006.2 |
| 20260506101057 | 49 | 360 | 2.0 | 9.0 | 0.00 | 0.85 | 0.85 | 94 | 1006.2 |
| 20260506100557 | 49 | 360 | 4.0 | 9.0 | 0.00 | 0.85 | 0.85 | 94 | 1006.2 |
| 20260506100109 | 49 | 360 | 5.0 | 10.0 | 0.00 | 0.85 | 0.85 | 94 | 1006.2 |
| 20260506095559 | 49 | 360 | 4.0 | 10.0 | 0.00 | 0.85 | 0.85 | 94 | 1006.2 |
| 20260506095101 | 49 | 360 | 5.0 | 12.0 | 0.00 | 0.85 | 0.85 | 94 | 1006.2 |
| 20260506094556 | 49 | 360 | 5.0 | 12.0 | 0.00 | 0.85 | 0.85 | 94 | 1006.1 |
| 20260506094057 | 49 | 360 | 6.0 | 12.0 | 0.00 | 0.85 | 0.85 | 94 | 1006.2 |
| 20260506093556 | 49 | 360 | 4.0 | 12.0 | 0.00 | 0.85 | 0.85 | 94 | 1006.1 |
| 20260506093059 | 49 | 360 | 5.0 | 12.0 | 0.00 | 0.85 | 0.85 | 94 | 1006.1 |
| 20260506092557 | 49 | 360 | 5.0 | 11.0 | 0.00 | 0.85 | 0.85 | 94 | 1006.0 |
| 20260506092059 | 49 | 360 | 5.0 | 11.0 | 0.00 | 0.85 | 0.85 | 94 | 1006.0 |
| 20260506091558 | 49 | 360 | 5.0 | 10.0 | 0.00 | 0.85 | 0.85 | 94 | 1006.0 |
| 20260506091057 | 49 | 360 | 4.0 | 10.0 | 0.00 | 0.85 | 0.85 | 94 | 1005.9 |
| 20260506090558 | 48 | 360 | 5.0 | 9.0 | 0.00 | 0.85 | 0.85 | 94 | 1005.9 |
| 20260506090101 | 48 | 360 | 4.0 | 9.0 | 0.00 | 0.85 | 0.85 | 94 | 1005.9 |
| 20260506085557 | 48 | 360 | 5.0 | 9.0 | 0.00 | 0.85 | 0.85 | 94 | 1005.9 |
| 20260506085057 | 48 | 360 | 5.0 | 9.0 | 0.00 | 0.85 | 0.85 | 94 | 1005.9 |
| 20260506084603 | 48 | 360 | 3.0 | 9.0 | 0.01 | 0.85 | 0.85 | 94 | 1006.0 |
| 20260506084058 | 48 | 360 | 3.0 | 9.0 | 0.00 | 0.84 | 0.84 | 94 | 1005.9 |
| 20260506083557 | 48 | 360 | 5.0 | 9.0 | 0.00 | 0.84 | 0.84 | 94 | 1005.8 |
| 20260506083056 | 48 | 360 | 4.0 | 9.0 | 0.01 | 0.84 | 0.84 | 94 | 1005.8 |
| 20260506082557 | 48 | 360 | 2.0 | 9.0 | 0.01 | 0.84 | 0.84 | 94 | 1005.8 |
| 20260506082057 | 48 | 360 | 4.0 | 9.0 | 0.01 | 0.84 | 0.84 | 94 | 1005.8 |
| 20260506081558 | 48 | 360 | 4.0 | 12.0 | 0.02 | 0.84 | 0.84 | 94 | 1005.7 |
| 20260506081057 | 48 | 360 | 3.0 | 12.0 | 0.03 | 0.84 | 0.84 | 95 | 1005.7 |
| 20260506080557 | 48 | 360 | 6.0 | 11.0 | 0.03 | 0.84 | 0.84 | 95 | 1005.7 |
| 20260506073057 | 48 | 360 | 3.0 | 9.0 | 0.05 | 0.82 | 0.82 | 95 | 1005.7 |
| 20260506072556 | 48 | 360 | 3.0 | 9.0 | 0.06 | 0.82 | 0.82 | 94 | 1005.7 |
| 20260506072057 | 48 | 360 | 1.0 | 8.0 | 0.07 | 0.82 | 0.82 | 95 | 1005.6 |
| 20260506071600 | 48 | 360 | 3.0 | 9.0 | 0.07 | 0.81 | 0.81 | 94 | 1005.6 |
| 20260506071057 | 47 | 360 | 3.0 | 9.0 | 0.07 | 0.81 | 0.81 | 94 | 1005.6 |
| 20260506070600 | 47 | 360 | 3.0 | 9.0 | 0.07 | 0.81 | 0.81 | 94 | 1005.6 |
| 20260506062057 | 47 | 360 | 3.0 | 8.0 | 0.11 | 0.76 | 0.75 | 94 | 1005.4 |
| 20260506061559 | 47 | 360 | 3.0 | 8.0 | 0.11 | 0.75 | 0.74 | 94 | 1005.4 |
| 20260506061057 | 48 | 360 | 2.0 | 6.0 | 0.11 | 0.74 | 0.74 | 94 | 1005.3 |
| 20260506060557 | 47 | 360 | 1.0 | 5.0 | 0.11 | 0.74 | 0.73 | 94 | 1005.2 |
| 20260506051057 | 48 | 360 | 4.0 | 9.0 | 0.06 | 0.66 | 0.62 | 94 | 1005.3 |
| 20260506050557 | 48 | 360 | 3.0 | 8.0 | 0.06 | 0.66 | 0.61 | 94 | 1005.3 |
| 20260506045057 | 48 | 360 | 2.0 | 8.0 | 0.08 | 0.65 | 0.60 | 94 | 1005.4 |
| 20260506044557 | 48 | 360 | 3.0 | 8.0 | 0.08 | 0.64 | 0.59 | 94 | 1005.4 |
| 20260506044057 | 48 | 360 | 3.0 | 6.0 | 0.08 | 0.63 | 0.59 | 94 | 1005.4 |
| 20260506043557 | 49 | 360 | 1.0 | 8.0 | 0.09 | 0.63 | 0.59 | 94 | 1005.4 |
| 20260506043057 | 49 | 360 | 2.0 | 8.0 | 0.09 | 0.62 | 0.58 | 94 | 1005.4 |
| 20260506042558 | 49 | 360 | 3.0 | 8.0 | 0.09 | 0.62 | 0.57 | 94 | 1005.5 |
| 20260506042058 | 49 | 360 | 1.0 | 6.0 | 0.08 | 0.61 | 0.56 | 94 | 1005.5 |
| 20260506041604 | 49 | 360 | 3.0 | 6.0 | 0.10 | 0.61 | 0.56 | 94 | 1005.5 |
| 20260506041058 | 49 | 360 | 3.0 | 5.0 | 0.10 | 0.60 | 0.55 | 94 | 1005.5 |
| 20260506040557 | 49 | 360 | 1.0 | 9.0 | 0.10 | 0.59 | 0.55 | 94 | 1005.6 |
| 20260506040109 | 49 | 0 | 2.0 | 9.0 | 0.10 | 0.58 | 0.53 | 94 | 1005.5 |
| 20260506035557 | 49 | 360 | 3.0 | 6.0 | 0.10 | 0.57 | 0.52 | 94 | 1005.5 |
| 20260506035057 | 49 | 360 | 2.0 | 6.0 | 0.10 | 0.56 | 0.51 | 94 | 1005.6 |
| 20260506034559 | 49 | 360 | 2.0 | 8.0 | 0.11 | 0.55 | 0.51 | 94 | 1005.6 |
| 20260506034056 | 49 | 360 | 2.0 | 8.0 | 0.11 | 0.55 | 0.50 | 94 | 1005.6 |
| 20260506033558 | 49 | 360 | 2.0 | 4.0 | 0.11 | 0.54 | 0.49 | 94 | 1005.7 |
| 20260506033057 | 49 | 360 | 1.0 | 4.0 | 0.13 | 0.53 | 0.48 | 94 | 1005.6 |
| 20260506032557 | 49 | 360 | 2.0 | 6.0 | 0.14 | 0.52 | 0.48 | 94 | 1005.6 |
| 20260506032058 | 49 | 360 | 2.0 | 6.0 | 0.16 | 0.51 | 0.47 | 94 | 1005.7 |
| 20260506031601 | 49 | 360 | 2.0 | 8.0 | 0.16 | 0.51 | 0.46 | 94 | 1005.7 |
| 20260506031057 | 49 | 360 | 3.0 | 8.0 | 0.18 | 0.50 | 0.45 | 94 | 1005.7 |
| 20260506030557 | 49 | 360 | 3.0 | 9.0 | 0.18 | 0.49 | 0.44 | 94 | 1005.7 |
| 20260506030107 | 49 | 360 | 2.0 | 9.0 | 0.17 | 0.48 | 0.43 | 94 | 1005.8 |
| 20260506025557 | 50 | 360 | 2.0 | 8.0 | 0.17 | 0.48 | 0.42 | 94 | 1005.8 |
| 20260506025056 | 50 | 360 | 4.0 | 9.0 | 0.17 | 0.47 | 0.41 | 94 | 1005.9 |
| 20260506024558 | 50 | 360 | 4.0 | 9.0 | 0.16 | 0.45 | 0.40 | 94 | 1006.0 |
| 20260506024056 | 50 | 360 | 2.0 | 6.0 | 0.15 | 0.44 | 0.38 | 94 | 1006.0 |
| 20260506023557 | 50 | 360 | 2.0 | 6.0 | 0.16 | 0.43 | 0.37 | 94 | 1006.0 |
| 20260506023054 | 50 | 360 | 2.0 | 10.0 | 0.14 | 0.40 | 0.35 | 94 | 1006.0 |
| 20260506022557 | 50 | 0 | 5.0 | 10.0 | 0.11 | 0.37 | 0.32 | 94 | 1006.1 |
| 20260506022056 | 50 | 360 | 3.0 | 10.0 | 0.11 | 0.36 | 0.30 | 94 | 1006.1 |
| 20260506021600 | 50 | 360 | 2.0 | 9.0 | 0.10 | 0.34 | 0.29 | 94 | 1006.2 |
| 20260506021056 | 50 | 360 | 3.0 | 9.0 | 0.09 | 0.33 | 0.27 | 94 | 1006.1 |
| 20260506020557 | 50 | 360 | 3.0 | 9.0 | 0.10 | 0.32 | 0.26 | 94 | 1006.1 |
| 20260506020054 | 50 | 360 | 3.0 | 9.0 | 0.10 | 0.31 | 0.25 | 94 | 1006.1 |
| 20260506015557 | 50 | 360 | 3.0 | 9.0 | 0.10 | 0.30 | 0.25 | 94 | 1006.2 |
| 20260506015057 | 50 | 360 | 4.0 | 10.0 | 0.10 | 0.29 | 0.24 | 94 | 1006.1 |
| 20260506014603 | 50 | 360 | 4.0 | 10.0 | 0.11 | 0.29 | 0.23 | 93 | 1006.2 |
| 20260506014056 | 50 | 360 | 2.0 | 9.0 | 0.11 | 0.28 | 0.22 | 93 | 1006.2 |
| 20260506013556 | 50 | 360 | 2.0 | 9.0 | 0.10 | 0.26 | 0.21 | 93 | 1006.2 |
| 20260506013055 | 50 | 360 | 2.0 | 9.0 | 0.10 | 0.25 | 0.20 | 93 | 1006.2 |